Weather History for HEAX - November, 2011

Change the Weather History Date:

Saturday, November 26, 2011

  Actual Average Record
Temperature  
Mean Temperature 64 °F -  
Max Temperature 71 °F 66 °F 92 °F (2013)
Min Temperature 56 °F 50 °F 51 °F (2008)
Degree Days  
Heating Degree Days 2    
Growing Degree Days 14 (Base 50)    
Moisture  
Dew Point 53 °F    
Average Humidity 66    
Maximum Humidity 82    
Minimum Humidity 48    
Precipitation  
Precipitation 0.00 in 0.06 in - ()
Sea Level Pressure  
Sea Level Pressure 30.14 in    
Wind  
Wind Speed 6 mph ()    
Max Wind Speed 13 mph    
Max Gust Speed -    
Visibility 6.2 miles    
Events      
Averages and records for this station are not official NWS values.
T = Trace of Precipitation, MM = Missing Value Source: Averaged Metar Reports

Daily Weather History Graph

Daily Weather History Graph

Search for Another Location

Airport or City:

Trip Planner

Search our weather history database for the weather conditions in past years. The results will help you decide how hot, cold, wet, or windy it might be!

Date:

Astronomy

Nov. 26, 2011 Rise Set
Actual Time 6:36 AM EET 4:58 PM EET
Civil Twilight 6:10 AM EET 5:24 PM EET
Nautical Twilight 5:40 AM EET 5:53 PM EET
Astronomical Twilight 5:11 AM EET 6:23 PM EET
Moon 7:43 AM EET (11/26) 6:11 PM EET (11/26)
Length of Visible Light 11h 14m
Length of Day
10h 21m
New Moon, 2% of the Moon is Illuminated
Nov 26
New Moon
Dec 2
First Quarter
Dec 10
Full
Dec 18
Last Quarter
Dec 24
New

Hourly Weather History & Observations

Time (EET) Temp. Dew Point Humidity Pressure Visibility Wind Dir Wind Speed Gust Speed Precip Events Conditions
12:00 AM 59.0 °F 51.8 °F 77% 30.12 in 6.2 mi NNW 2.3 mph - N/A   Partly Cloudy
1:00 AM 57.2 °F 51.8 °F 82% 30.12 in 6.2 mi North 3.5 mph - N/A   Scattered Clouds
2:00 AM 57 °F 52 °F 76% 30.13 in 6 mi Calm Calm - -   Scattered Clouds
2:00 AM 57.2 °F 51.8 °F 82% 30.12 in 6.2 mi Calm Calm - N/A   Partly Cloudy
3:00 AM 62.6 °F 53.6 °F 72% 30.12 in 6.2 mi North 6.9 mph - N/A   Scattered Clouds
4:00 AM 60.8 °F 51.8 °F 72% 30.12 in 6.2 mi North 6.9 mph - N/A   Scattered Clouds
5:00 AM 60.8 °F 51.8 °F 72% 30.12 in 6.2 mi North 6.9 mph - N/A   Scattered Clouds
6:00 AM 60.8 °F 51.8 °F 72% 30.12 in 6.2 mi North 6.9 mph - N/A   Scattered Clouds
7:00 AM 62.6 °F 51.8 °F 68% 30.12 in 6.2 mi North 5.8 mph - N/A   Scattered Clouds
8:00 AM 65 °F 50 °F 48% 30.15 in 6 mi NNW 11.5 mph - -   Mostly Cloudy
9:00 AM 68.0 °F 50.0 °F 52% 30.15 in 6.2 mi North 12.7 mph - N/A   Scattered Clouds
10:00 AM 68.0 °F 55.4 °F 64% 30.15 in 6.2 mi North 9.2 mph - N/A   Scattered Clouds
11:00 AM 68.0 °F 59.0 °F 73% 30.15 in 6.2 mi NE 6.9 mph - N/A   Scattered Clouds
12:00 PM 71.6 °F 59.0 °F 64% 30.12 in 6.2 mi NE 5.8 mph - N/A   Scattered Clouds
1:00 PM 69.8 °F 57.2 °F 64% 30.12 in 6.2 mi NNW 9.2 mph - N/A   Scattered Clouds
2:00 PM 70 °F 58 °F 58% 30.13 in 6 mi NNW 9.2 mph - -   Mostly Cloudy
2:00 PM 69.8 °F 59.0 °F 68% 30.12 in 6.2 mi NNW 9.2 mph - N/A   Scattered Clouds
3:00 PM 69.8 °F 57.2 °F 64% 30.12 in 6.2 mi North 11.5 mph - N/A   Scattered Clouds
4:00 PM 66.2 °F 57.2 °F 73% 30.12 in 6.2 mi North 11.5 mph - N/A   Scattered Clouds
5:00 PM 64.4 °F 53.6 °F 68% 30.15 in 6.2 mi North 12.7 mph - N/A   Scattered Clouds
6:00 PM 64.4 °F 51.8 °F 64% 30.15 in 6.2 mi North 11.5 mph - N/A   Scattered Clouds
7:00 PM 62.6 °F 50.0 °F 63% 30.15 in 6.2 mi NNW 11.5 mph - N/A   Scattered Clouds
8:00 PM 63 °F 51 °F 55% 30.18 in 6 mi North 11.5 mph - -   Scattered Clouds
8:00 PM 62.6 °F 50.0 °F 63% 30.18 in 6.2 mi North 11.5 mph - N/A   Partly Cloudy
9:00 PM 62.6 °F 48.2 °F 59% 30.18 in 6.2 mi NNW 9.2 mph - N/A   Scattered Clouds
10:00 PM 62.6 °F 50.0 °F 63% 30.18 in 6.2 mi North 8.1 mph - N/A   Partly Cloudy
11:00 PM 62.6 °F 48.2 °F 59% 30.18 in 6.2 mi North 6.9 mph - N/A   Partly Cloudy